This is the latest recevied weather packets stored in our database for station/object SQ2LXT-10. If no packets are shown the sender has not sent any weather packets the latest 1 day(s).
| Time | Temp. | Humidity | Pressure | Rain* | Wind** | Luminosity | Snow |
|---|---|---|---|---|---|---|---|
| 1778093152 | 11.67° C | 100% | 1001.5 hPa | - | - | - | - |
| 1778090452 | 16.11° C | 100% | 1000.8 hPa | - | - | - | - |
| 1778089552 | 17.22° C | 100% | 1000.5 hPa | - | - | - | - |
| 1778088652 | 17.78° C | 100% | 1000.3 hPa | - | - | - | - |
| 1778087752 | 18.89° C | 100% | 1000.3 hPa | - | - | - | - |
| 1778086852 | 19.44° C | 100% | 1000.2 hPa | - | - | - | - |
| 1778077851 | 20° C | 91% | 1000.4 hPa | - | - | - | - |
| 1778074251 | 20° C | 87% | 1000.6 hPa | - | - | - | - |
| 1778073351 | 21.11° C | 76% | 1000.5 hPa | - | - | - | - |
| 1778072451 | 19.44° C | 89% | 1000.4 hPa | - | - | - | - |
| 1778063450 | 20.56° C | 77% | 999.6 hPa | - | - | - | - |
| 1778062550 | 21.67° C | 72% | 999.6 hPa | - | - | - | - |
| 1778061650 | 20.56° C | 84% | 999.7 hPa | - | - | - | - |
| 1778060750 | 18.33° C | 100% | 999.7 hPa | - | - | - | - |
| 1778059850 | 20° C | 82% | 999.4 hPa | - | - | - | - |
| 1778058950 | 20.56° C | 85% | 999.6 hPa | - | - | - | - |
| 1778058050 | 19.44° C | 93% | 999.6 hPa | - | - | - | - |
| 1778057150 | 19.44° C | 87% | 999.6 hPa | - | - | - | - |
| 1778056250 | 20° C | 87% | 999.7 hPa | - | - | - | - |
| 1778055350 | 19.44° C | 94% | 999.8 hPa | - | - | - | - |
| 1778049049 | 13.33° C | 100% | 999.7 hPa | - | - | - | - |
| 1778048149 | 12.78° C | 100% | 1000 hPa | - | - | - | - |
| 1778047249 | 12.78° C | 100% | 1000 hPa | - | - | - | - |
| 1778046349 | 13.33° C | 100% | 1000.4 hPa | - | - | - | - |
| 1778045449 | 12.22° C | 100% | 1000.3 hPa | - | - | - | - |
* Rain since midnight (hover to see other rain measurements)
** Current wind speed in m/s (hover to see current wind gust speed)